Temp
-9 -9 -9 -9 -9 -9 -9 -9 -9 -8 -8 -8 -8 -8 -8 -8 -8 -8 -8 -8 -8 -8 -8 -8 -8 -9 -9 -9 -9 -10 -10 -10 -10 -11 -11 -11 -11 -11 -11 -11 -11 -11 -11 -11 -11
-9 -9 -9 -9 -9 -9 -9 -9 -9 -9 -8 -8 -8 -8 -8 -8 -8 -7 -8 -8 -8 -8 -8 -8 -9 -9 -9 -9 -9 -10 -10 -10 -10 -10 -11 -11 -11 -11 -11 -11 -11 -11 -11 -11 -11
-9 -9 -9 -9 -9 -9 -9 -9 -9 -9 -8 -8 -8 -8 -8 -8 -7 -7 -7 -8 -8 -8 -8 -8 -8 -8 -9 -9 -9 -10 -10 -10 -10 -10 -11 -11 -11 -11 -11 -11 -11 -11 -11 -11 -11
-9 -9 -9 -9 -9 -9 -9 -9 -8 -8 -8 -8 -8 -8 -8 -8 -7 -7 -8 -8 -8 -8 -8 -8 -8 -8 -8 -9 -9 -9 -10 -10 -10 -10 -11 -11 -11 -11 -11 -11 -11 -11 -11 -12 -11
-9 -9 -9 -9 -9 -9 -9 -9 -8 -8 -8 -8 -8 -8 -8 -8 -8 -8 -8 -8 -8 -8 -9 -8 -8 -8 -9 -9 -9 -9 -9 -9 -9 -10 -10 -11 -11 -12 -12 -11 -11 -12 -12 -12 -12
-9 -9 -9 -9 -9 -9 -8 -8 -9 -9 -9 -9 -8 -8 -8 -8 -8 -8 -8 -8 -8 -8 -9 -9 -9 -8 -9 -9 -9 -9 -9 -9 -9 -9 -10 -11 -11 -12 -12 -12 -12 -12 -12 -12 -12
-9 -9 -9 -9 -9 -9 -9 -9 -9 -9 -9 -9 -9 -8 -8 -8 -8 -8 -8 -8 -8 -9 -9 -9 -9 -9 -9 -9 -9 -9 -9 -9 -9 -10 -10 -11 -11 -11 -12 -12 -12 -12 -12 -12 -12
-9 -9 -9 -9 -9 -9 -9 -9 -9 -9 -9 -9 -9 -9 -9 -8 -8 -8 -8 -8 -8 -9 -9 -9 -9 -9 -9 -9 -9 -9 -10 -9 -10 -10 -10 -10 -11 -11 -12 -12 -13 -13 -13 -13 -13
-9 -9 -9 -9 -9 -9 -9 -9 -9 -9 -9 -9 -9 -9 -9 -8 -9 -8 -8 -8 -9 -9 -9 -9 -9 -9 -10 -10 -10 -10 -10 -10 -10 -10 -10 -10 -10 -11 -12 -12 -13 -13 -13 -13 -13
-10 -10 -10 -9 -9 -9 -9 -9 -9 -9 -9 -9 -9 -9 -9 -9 -9 -8 -8 -9 -9 -9 -9 -9 -9 -10 -10 -10 -10 -10 -10 -10 -10 -10 -10 -10 -10 -10 -11 -12 -13 -13 -13 -13 -14
-10 -10 -10 -10 -10 -10 -9 -9 -9 -9 -9 -9 -9 -9 -9 -9 -9 -9 -9 -9 -9 -9 -9 -9 -10 -10 -10 -10 -10 -10 -10 -10 -10 -10 -9 -10 -10 -10 -10 -11 -12 -13 -13 -14 -14
-10 -10 -10 -10 -10 -10 -10 -9 -9 -9 -9 -9 -9 -9 -9 -9 -9 -9 -9 -9 -9 -9 -9 -10 -10 -10 -10 -10 -10 -10 -10 -10 -10 -10 -10 -10 -10 -10 -10 -11 -12 -13 -13 -13 -14
-11 -10 -10 -10 -10 -10 -10 -10 -10 -10 -10 -10 -9 -9 -9 -10 -10 -10 -10 -10 -10 -10 -10 -10 -10 -10 -11 -11 -11 -10 -11 -11 -11 -11 -10 -10 -11 -11 -11 -11 -11 -12 -13 -13 -14
-11 -11 -11 -10 -10 -10 -10 -10 -10 -10 -10 -10 -10 -10 -10 -10 -10 -10 -10 -10 -10 -10 -10 -10 -11 -11 -11 -11 -11 -11 -11 -11 -11 -11 -11 -11 -11 -11 -11 -11 -12 -12 -13 -14 -15
-10 -10 -10 -10 -10 -10 -10 -10 -10 -10 -10 -10 -10 -10 -10 -10 -10 -10 -11 -11 -10 -10 -10 -11 -11 -11 -11 -11 -11 -11 -11 -11 -11 -11 -12 -12 -12 -12 -12 -12 -12 -13 -14 -15 -15
-10 -10 -10 -10 -10 -10 -10 -10 -10 -10 -10 -10 -10 -10 -10 -10 -10 -11 -11 -11 -11 -11 -11 -11 -12 -12 -12 -12 -12 -12 -12 -11 -11 -11 -12 -12 -13 -12 -12 -13 -13 -13 -14 -15 -16
-10 -10 -10 -10 -10 -10 -10 -10 -10 -10 -10 -10 -10 -10 -10 -11 -11 -11 -11 -11 -11 -11 -11 -12 -12 -12 -12 -12 -13 -13 -13 -12 -12 -11 -12 -12 -13 -13 -13 -13 -13 -13 -14 -15 -16
-10 -10 -10 -10 -11 -10 -10 -10 -10 -10 -10 -10 -11 -11 -11 -11 -11 -11 -11 -11 -11 -12 -12 -12 -12 -12 -13 -13 -13 -13 -13 -14 -13 -13 -12 -13 -13 -13 -14 -14 -14 -14 -14 -15 -15
-11 -11 -10 -10 -11 -11 -11 -11 -11 -11 -11 -11 -11 -11 -11 -11 -11 -12 -12 -12 -12 -12 -12 -12 -13 -13 -13 -14 -14 -13 -14 -14 -14 -13 -13 -13 -13 -14 -14 -15 -15 -15 -15 -15 -16
-11 -11 -11 -11 -11 -11 -11 -11 -11 -11 -11 -11 -11 -11 -11 -12 -12 -12 -12 -12 -12 -12 -13 -13 -13 -14 -14 -14 -14 -14 -15 -15 -15 -15 -14 -13 -14 -14 -15 -15 -16 -15 -15 -16 -16
-11 -11 -11 -11 -11 -11 -11 -11 -11 -11 -12 -12 -12 -12 -12 -12 -12 -12 -12 -12 -13 -13 -13 -13 -13 -14 -14 -14 -14 -14 -15 -16 -16 -16 -16 -15 -13 -15 -16 -16 -16 -16 -16 -16 -17
-11 -11 -11 -11 -11 -11 -11 -11 -12 -12 -12 -12 -12 -12 -12 -13 -12 -13 -13 -13 -13 -13 -13 -14 -13 -13 -14 -15 -15 -15 -15 -16 -16 -16 -16 -16 -13 -15 -16 -17 -17 -17 -17 -17 -17
-11 -11 -11 -11 -11 -12 -11 -12 -12 -12 -12 -12 -12 -12 -13 -13 -13 -13 -13 -14 -14 -14 -14 -14 -14 -14 -14 -15 -15 -14 -15 -16 -16 -16 -16 -17 -16 -16 -17 -17 -17 -17 -18 -18 -18
-11 -11 -12 -12 -12 -12 -12 -12 -12 -12 -12 -12 -13 -13 -13 -13 -14 -13 -14 -14 -15 -15 -15 -15 -14 -16 -15 -16 -16 -15 -16 -16 -17 -17 -17 -16 -16 -17 -18 -18 -18 -18 -18 -18 -18
-12 -12 -12 -12 -12 -12 -12 -12 -12 -12 -12 -13 -13 -14 -13 -13 -14 -14 -14 -14 -15 -15 -15 -16 -15 -15 -14 -15 -16 -15 -15 -17 -17 -17 -17 -17 -17 -17 -17 -17 -18 -18 -18 -18 -18
-12 -13 -12 -12 -12 -12 -12 -12 -13 -13 -13 -13 -13 -14 -14 -14 -14 -14 -15 -15 -15 -15 -16 -16 -16 -16 -14 -16 -16 -15 -15 -17 -17 -17 -17 -17 -16 -18 -18 -18 -18 -18 -19 -19 -19
-13 -13 -13 -12 -12 -13 -13 -13 -13 -13 -13 -14 -14 -14 -14 -14 -15 -15 -15 -15 -15 -15 -16 -16 -16 -16 -16 -16 -16 -15 -16 -17 -17 -17 -18 -18 -18 -18 -18 -18 -18 -19 -19 -19 -19
Height
5849 5849 5849 5849 5849 5849 5850 5850 5850 5850 5850 5849 5849 5849 5848 5847 5846 5845 5846 5843 5841 5840 5838 5835 5831 5829 5825 5823 5820 5816 5814 5811 5808 5804 5801 5797 5794 5792 5789 5786 5784 5784 5783 5782 5780
5851 5851 5851 5851 5851 5851 5851 5852 5852 5852 5852 5851 5851 5850 5849 5849 5848 5848 5846 5843 5841 5840 5838 5835 5832 5829 5826 5822 5820 5817 5814 5810 5807 5803 5799 5796 5792 5790 5788 5785 5784 5783 5782 5780 5778
5854 5854 5854 5853 5853 5853 5854 5854 5855 5855 5854 5853 5852 5851 5851 5850 5850 5848 5846 5844 5843 5841 5839 5836 5832 5829 5826 5823 5820 5816 5813 5810 5806 5802 5798 5794 5791 5787 5784 5783 5782 5781 5780 5778 5775
5858 5857 5856 5856 5856 5856 5856 5856 5856 5856 5856 5855 5854 5853 5853 5852 5852 5849 5847 5846 5844 5842 5839 5836 5832 5829 5826 5823 5820 5816 5812 5809 5804 5801 5797 5793 5789 5786 5783 5781 5780 5779 5777 5774 5772
5861 5860 5860 5859 5859 5859 5858 5859 5858 5858 5858 5857 5856 5855 5854 5854 5852 5851 5849 5846 5844 5842 5839 5836 5832 5829 5826 5823 5820 5815 5811 5807 5804 5800 5796 5792 5788 5785 5781 5779 5777 5775 5772 5771 5769
5864 5863 5863 5862 5862 5862 5861 5861 5861 5860 5860 5859 5858 5857 5856 5855 5853 5851 5849 5847 5845 5842 5839 5835 5831 5829 5826 5822 5819 5815 5811 5807 5803 5799 5795 5790 5786 5781 5778 5777 5774 5771 5770 5767 5765
5866 5866 5866 5865 5865 5864 5864 5864 5863 5862 5861 5861 5859 5858 5857 5856 5853 5851 5850 5847 5844 5842 5838 5834 5831 5828 5825 5821 5818 5814 5811 5806 5801 5797 5793 5787 5784 5779 5776 5774 5771 5768 5766 5764 5761
5869 5869 5868 5868 5867 5867 5866 5866 5864 5864 5863 5861 5860 5858 5857 5855 5853 5851 5849 5847 5844 5841 5837 5833 5830 5827 5823 5820 5816 5813 5809 5804 5799 5793 5790 5786 5782 5777 5773 5770 5768 5766 5763 5760 5757
5871 5870 5870 5870 5869 5868 5868 5867 5865 5864 5863 5862 5861 5859 5857 5855 5853 5851 5849 5846 5842 5839 5836 5832 5828 5824 5822 5819 5815 5811 5807 5803 5798 5792 5788 5784 5780 5775 5771 5768 5765 5762 5760 5756 5753
5871 5871 5871 5871 5870 5869 5868 5867 5866 5865 5864 5862 5860 5860 5858 5855 5852 5850 5847 5844 5841 5837 5834 5831 5826 5823 5820 5816 5813 5809 5805 5800 5795 5790 5784 5781 5778 5774 5769 5765 5761 5758 5755 5752 5748
5871 5872 5871 5871 5870 5869 5869 5868 5868 5866 5863 5862 5860 5857 5855 5853 5850 5848 5845 5842 5839 5836 5832 5828 5825 5821 5817 5814 5810 5806 5802 5798 5792 5787 5782 5779 5775 5771 5766 5762 5758 5755 5751 5748 5744
5871 5871 5871 5870 5870 5869 5868 5866 5865 5865 5862 5860 5857 5855 5853 5851 5848 5846 5843 5841 5837 5833 5830 5827 5823 5819 5815 5811 5807 5803 5799 5794 5789 5784 5780 5776 5772 5768 5764 5759 5755 5750 5746 5743 5739
5870 5870 5869 5869 5868 5868 5866 5865 5863 5861 5860 5858 5856 5853 5851 5849 5846 5843 5841 5837 5834 5831 5827 5823 5821 5817 5813 5809 5804 5799 5794 5790 5787 5781 5776 5772 5768 5763 5759 5754 5749 5745 5741 5737 5733
5868 5868 5867 5867 5867 5865 5864 5862 5861 5859 5858 5856 5853 5851 5848 5845 5843 5841 5837 5835 5831 5828 5824 5821 5817 5814 5810 5805 5801 5796 5791 5786 5782 5778 5772 5767 5764 5757 5753 5748 5743 5739 5735 5731 5727
5865 5865 5865 5864 5863 5862 5861 5859 5857 5856 5854 5853 5850 5847 5845 5843 5841 5838 5834 5831 5827 5824 5821 5817 5812 5808 5805 5801 5797 5793 5787 5782 5777 5773 5769 5763 5758 5753 5747 5742 5737 5732 5728 5724 5720
5862 5861 5861 5860 5859 5858 5856 5855 5854 5853 5850 5848 5846 5844 5841 5839 5836 5833 5830 5827 5823 5819 5816 5812 5808 5804 5800 5795 5791 5787 5783 5777 5772 5767 5763 5757 5752 5749 5741 5736 5731 5726 5720 5716 5713
5857 5857 5857 5856 5855 5854 5852 5851 5851 5848 5847 5845 5842 5840 5837 5834 5830 5827 5824 5822 5819 5815 5811 5807 5803 5799 5794 5790 5786 5781 5776 5771 5766 5760 5755 5750 5745 5740 5734 5728 5723 5717 5712 5707 5703
5854 5853 5852 5851 5850 5849 5848 5847 5845 5843 5841 5839 5836 5834 5831 5828 5826 5822 5819 5816 5812 5808 5804 5802 5799 5793 5788 5783 5778 5773 5769 5764 5757 5753 5749 5745 5738 5734 5727 5720 5715 5710 5704 5698 5694
5849 5849 5847 5846 5845 5844 5843 5842 5840 5837 5836 5833 5830 5828 5825 5822 5819 5816 5813 5809 5805 5802 5799 5793 5792 5787 5782 5776 5772 5765 5761 5756 5750 5746 5739 5736 5730 5726 5718 5712 5705 5700 5695 5689 5685
5843 5843 5842 5840 5838 5837 5837 5835 5832 5831 5829 5826 5824 5822 5818 5815 5812 5808 5806 5802 5798 5795 5790 5786 5782 5781 5775 5770 5766 5760 5754 5748 5742 5736 5729 5727 5720 5718 5714 5706 5698 5692 5686 5681 5677
5836 5836 5835 5834 5832 5831 5829 5828 5826 5823 5821 5819 5816 5814 5811 5808 5805 5801 5798 5794 5790 5787 5783 5777 5774 5774 5767 5763 5757 5752 5744 5739 5735 5728 5717 5711 5711 5707 5701 5693 5687 5682 5677 5673 5669
5829 5828 5827 5825 5826 5823 5822 5820 5819 5816 5813 5811 5808 5806 5804 5800 5796 5793 5790 5784 5782 5778 5774 5769 5763 5762 5758 5754 5749 5742 5734 5729 5723 5717 5708 5700 5701 5698 5691 5683 5678 5673 5669 5665 5660
5820 5819 5818 5816 5815 5814 5813 5811 5809 5808 5805 5803 5800 5798 5795 5790 5787 5784 5781 5776 5773 5769 5764 5760 5753 5751 5746 5743 5738 5730 5723 5718 5712 5705 5704 5688 5689 5681 5678 5670 5666 5662 5659 5654 5649
5809 5809 5809 5807 5805 5804 5803 5803 5801 5799 5796 5793 5791 5788 5784 5780 5779 5773 5768 5766 5763 5759 5754 5749 5745 5744 5738 5734 5729 5722 5712 5709 5701 5692 5690 5685 5676 5676 5664 5659 5655 5651 5646 5641 5636
5798 5797 5797 5797 5796 5794 5793 5793 5792 5788 5785 5783 5781 5779 5773 5771 5769 5763 5759 5755 5752 5748 5744 5739 5733 5730 5727 5722 5716 5710 5703 5700 5690 5684 5671 5672 5666 5664 5651 5648 5642 5638 5633 5628 5623
5786 5787 5787 5786 5786 5785 5783 5783 5780 5778 5775 5772 5770 5767 5764 5762 5757 5752 5748 5746 5743 5738 5733 5726 5719 5716 5716 5709 5702 5699 5699 5688 5683 5676 5662 5657 5655 5649 5643 5636 5630 5626 5621 5615 5610
5774 5774 5773 5775 5776 5775 5774 5771 5768 5766 5764 5760 5758 5755 5753 5750 5745 5742 5739 5736 5731 5727 5720 5712 5707 5700 5697 5694 5689 5687 5683 5676 5668 5663 5652 5644 5641 5634 5632 5626 5620 5614 5609 5603 5597
Wind_Speed
8 7 6 6 7 8 9 13 14 15 15 16 16 16 16 17 18 18 15 20 19 19 19 19 19 20 21 20 20 20 19 17 18 19 18 20 20 17 15 14 11 8 9 8 8
12 11 11 10 11 12 14 14 14 14 17 16 15 15 16 16 17 18 19 20 20 21 22 20 19 21 23 22 21 19 19 19 18 18 19 19 20 18 15 14 10 10 10 9 10
15 14 14 13 14 14 14 14 13 14 15 15 15 16 16 16 17 18 20 19 19 19 20 20 20 23 24 23 23 22 21 22 22 20 19 19 19 19 16 15 10 10 9 10 11
16 16 15 14 13 13 14 14 14 13 14 14 15 15 14 15 15 16 17 17 18 19 20 21 21 22 25 26 24 24 25 25 25 23 21 19 17 18 17 16 15 14 14 15 14
14 15 16 16 16 16 15 15 14 13 13 13 13 13 12 12 14 14 14 15 17 19 19 20 20 21 22 24 26 28 29 29 28 28 25 23 19 18 19 18 18 19 19 18 18
12 12 13 15 16 16 15 14 13 11 11 10 10 10 10 10 11 11 12 13 14 17 19 19 19 18 20 23 25 28 31 32 32 31 29 25 25 24 21 19 19 19 18 19 19
11 10 11 13 12 12 11 10 9 8 7 7 7 8 8 9 10 11 12 12 12 15 21 20 17 16 17 21 24 27 29 31 33 32 31 30 27 27 25 21 19 19 19 21 21
9 8 9 10 9 8 7 6 5 5 6 7 7 7 8 10 11 11 12 13 12 13 19 21 17 15 17 19 22 24 25 28 31 34 33 32 31 29 27 24 21 20 20 21 22
6 6 5 5 6 5 3 3 4 4 5 7 8 9 10 11 13 13 14 15 15 14 16 22 19 17 18 19 21 23 25 27 30 33 34 34 33 31 27 25 24 23 23 23 25
3 2 2 3 2 1 1 2 3 7 8 8 9 9 11 12 14 16 16 17 18 16 17 22 22 19 19 21 21 21 23 28 29 29 32 33 34 34 31 28 26 25 25 25 26
3 3 3 2 1 1 3 4 5 6 9 9 9 10 12 14 15 16 17 19 20 20 19 22 25 23 21 20 20 23 24 26 28 27 29 30 31 32 33 32 28 27 27 26 27
5 5 5 4 4 5 5 6 7 8 9 11 12 13 14 16 17 19 19 21 22 23 21 23 25 25 21 21 22 24 25 26 26 27 27 29 30 32 30 32 32 27 26 29 31
9 8 8 8 9 9 10 10 10 10 12 13 14 14 16 18 19 19 20 22 23 23 23 24 25 27 23 23 25 27 28 26 24 23 25 29 29 30 29 29 31 29 26 29 31
11 12 13 13 13 13 13 14 15 16 15 17 14 18 17 19 20 21 21 22 23 24 25 25 26 29 27 27 27 27 28 26 25 23 24 28 30 32 31 27 31 31 29 29 31
15 16 16 16 17 17 18 19 19 20 21 18 19 19 20 20 21 22 22 23 24 26 26 27 28 29 30 29 29 30 30 30 30 30 27 30 31 33 36 28 30 33 32 32 31
14 14 15 16 16 16 18 18 19 21 23 21 20 20 20 22 22 23 23 24 26 27 28 28 30 31 33 34 32 32 31 32 34 36 35 33 33 31 37 32 29 34 36 36 32
18 18 17 18 18 19 19 19 20 20 21 21 23 22 23 24 25 26 26 28 30 31 30 30 31 33 35 35 34 34 34 36 39 39 41 41 40 34 38 33 32 36 40 40 36
22 22 22 22 22 22 22 22 22 23 23 24 25 25 26 26 27 28 30 31 33 34 34 31 31 35 36 37 38 37 38 38 40 41 44 45 43 38 37 39 38 38 42 43 42
25 25 25 25 26 25 24 23 24 25 25 26 27 28 29 30 31 32 32 34 35 36 36 38 32 34 37 38 40 42 42 42 42 45 50 50 48 40 41 39 41 41 43 44 41
28 28 28 28 28 28 27 27 28 28 28 29 30 31 32 34 34 36 36 38 38 39 39 39 40 35 38 40 41 43 43 45 44 47 52 52 50 44 41 41 42 42 44 44 43
33 32 32 32 32 32 31 31 30 30 31 32 33 36 37 38 37 38 39 42 41 41 40 42 43 39 40 42 44 46 47 46 48 50 53 53 50 51 41 38 43 44 45 45 44
36 37 36 35 36 36 36 36 35 34 36 37 37 39 39 40 42 42 41 43 44 43 43 43 47 45 44 44 46 50 52 50 49 54 52 53 56 44 38 42 44 45 46 45 46
41 41 41 41 40 39 39 39 40 39 40 41 43 42 41 43 44 43 43 45 45 44 45 46 49 49 50 51 52 56 57 54 53 51 47 53 50 48 43 43 45 45 46 48 50
47 46 45 44 44 43 42 42 42 43 44 45 45 44 45 46 43 48 49 48 45 45 46 48 50 48 52 52 53 57 57 53 50 50 46 49 48 46 43 44 46 46 48 52 56
50 51 49 48 45 46 46 45 45 48 49 48 47 44 49 48 47 50 50 48 46 47 47 50 54 53 53 55 57 54 51 48 49 52 48 48 49 44 48 48 50 52 53 54 54
54 54 52 51 50 49 49 47 49 50 53 51 49 48 48 49 49 51 51 50 50 51 53 55 57 57 55 54 50 52 55 47 48 52 56 56 56 47 47 46 48 53 54 55 55
54 57 57 55 53 51 49 50 50 51 53 51 50 50 51 50 50 51 53 53 55 55 56 59 58 59 60 51 54 58 51 47 50 53 52 51 52 51 48 48 49 51 55 58 60
Wind_Direction
115 110 101 95 95 97 102 103 97 92 91 94 91 86 82 79 75 70 71 57 52 45 37 32 29 29 27 25 21 10 5 1 352 347 341 337 338 335 327 325 321 313 307 321 333
94 96 99 104 110 110 109 106 100 99 98 97 90 89 90 84 76 66 55 48 41 36 34 31 32 35 33 28 24 16 10 1 355 350 341 336 337 339 331 323 314 302 307 319 318
98 100 100 100 103 107 109 107 106 106 102 98 98 93 84 75 68 59 51 43 39 33 31 30 32 32 31 28 25 19 16 11 3 355 344 337 334 334 331 323 307 300 305 315 308
92 91 94 99 104 110 111 112 107 103 101 102 96 88 79 72 63 57 51 43 41 32 28 28 29 29 25 24 22 20 16 14 9 5 352 341 331 329 327 325 311 297 299 302 305
93 91 92 96 104 106 108 107 107 106 101 94 86 79 69 62 60 53 48 45 41 33 25 27 28 25 22 21 19 17 17 13 11 6 1 348 337 328 323 322 315 302 286 292 297
90 93 97 96 96 99 99 100 102 100 94 88 79 70 63 52 50 44 39 39 41 33 23 23 25 23 18 17 16 16 14 12 9 6 0 354 347 337 329 321 316 313 297 292 292
80 96 104 104 101 98 99 96 90 87 82 75 63 51 40 39 30 27 19 23 27 25 20 17 18 16 14 13 12 14 14 10 6 4 1 356 352 343 334 322 315 311 305 295 292
86 99 110 112 112 110 103 88 72 53 39 33 29 23 13 16 13 11 7 9 6 9 11 10 11 6 5 6 8 9 11 9 5 0 2 1 354 349 336 326 319 313 306 300 296
110 94 115 130 133 126 101 54 35 20 12 6 3 6 4 0 357 356 357 357 355 350 354 3 4 2 357 357 3 6 7 7 5 0 1 6 358 350 340 329 317 313 309 305 303
141 138 120 142 153 149 65 29 20 24 5 355 358 357 352 348 347 345 344 346 346 340 341 353 358 355 351 356 358 2 4 1 2 1 1 6 5 355 349 337 324 316 311 306 304
195 208 218 217 225 281 319 332 343 346 358 355 344 341 338 336 336 336 335 337 339 336 335 344 352 349 346 350 352 354 358 360 358 4 360 1 3 359 350 343 334 321 312 305 303
222 226 229 251 269 284 294 308 315 323 325 334 330 332 332 330 329 330 330 331 332 333 331 335 343 344 338 342 344 347 351 356 356 358 358 357 359 360 352 343 336 328 315 306 305
232 235 249 261 268 274 281 289 295 301 312 324 321 324 324 325 326 328 328 328 331 332 329 327 333 340 333 337 338 343 345 347 353 352 354 353 355 352 349 342 333 328 316 308 303
256 260 266 269 274 279 287 292 298 304 306 317 315 319 319 324 325 327 325 326 329 329 327 323 327 335 331 328 331 335 337 339 344 350 348 346 348 341 344 337 329 323 316 306 302
258 263 269 273 278 281 286 290 295 299 303 309 312 312 317 321 323 322 321 321 322 325 325 322 323 329 330 326 324 327 331 334 336 337 341 340 337 336 335 332 324 318 311 306 303
265 267 272 275 279 285 291 296 297 296 301 303 305 310 314 316 317 317 317 318 318 322 321 319 320 322 326 324 322 323 326 326 328 330 335 336 333 336 327 324 316 312 309 306 304
266 270 272 276 281 284 289 294 298 302 303 304 306 308 310 310 313 315 316 317 319 320 319 317 316 317 321 323 321 322 323 323 323 328 330 332 329 330 319 315 310 307 304 303 304
271 271 272 275 279 283 288 293 298 299 301 301 302 303 305 308 311 312 313 316 315 317 315 313 311 315 319 321 321 320 321 324 324 324 323 326 325 326 315 314 306 302 301 300 304
275 277 278 279 282 284 287 290 292 292 295 297 299 300 302 304 307 309 311 312 311 313 312 311 312 315 317 317 319 321 320 321 320 319 319 322 322 322 314 310 302 301 299 299 302
281 281 281 281 281 283 285 285 288 291 293 295 297 300 302 302 305 308 310 308 309 310 310 311 311 314 314 316 319 317 318 318 318 317 316 320 318 318 315 304 300 300 299 300 300
280 281 282 283 284 284 284 285 286 288 290 294 296 298 299 301 304 306 308 306 307 309 310 310 310 314 313 316 319 318 315 315 316 315 312 316 319 322 316 300 296 294 294 296 299
275 277 277 280 284 285 285 286 287 289 292 293 295 297 300 302 304 306 307 305 308 308 308 307 308 311 311 313 315 315 314 315 315 314 315 312 320 322 305 297 292 291 294 296 298
272 271 272 276 278 281 285 285 287 288 289 292 294 296 298 298 301 303 304 303 308 307 307 308 309 311 310 314 317 315 314 313 311 311 317 305 320 309 302 290 288 289 294 294 296
270 269 270 272 274 277 280 284 286 287 288 290 292 295 294 295 300 301 301 303 306 305 305 307 309 308 307 310 313 313 307 310 306 308 309 309 307 314 304 295 293 292 292 295 297
271 270 271 273 272 276 278 283 287 287 286 288 290 294 294 297 298 297 298 299 302 303 304 302 304 305 309 310 308 307 307 310 303 307 302 306 305 313 302 300 297 294 296 296 297
272 272 272 273 276 278 280 283 284 287 289 288 289 291 294 297 295 298 297 300 301 303 302 302 303 305 307 308 305 302 310 305 304 305 303 299 302 304 305 305 305 301 298 298 301
270 272 274 274 276 280 281 285 287 285 284 286 289 290 291 290 288 291 293 297 300 303 303 302 305 306 304 301 301 304 306 309 304 307 304 299 305 303 300 304 309 307 303 303 305